Location: Tucson
(32.2217°N, 110.9265°W)
Time: 07:14:51
(UTC-07:00)

Tiros 1 - Pass Details

Date: 29 October 2021
Orbit: 629 x 664 km, 48.4° (Epoch: 26 November)

Event Time Altitude Azimuth Distance (km) Brightness Sun altitude
Rises 10:36:23 0° 298° (WNW) 2,985 10.2 39.2°
Reaches altitude 10° 10:40:25 10° 331° (NNW) 2,067 9.4 39.6°
Maximum altitude 10:42:05 12° 352° (N) 1,954 9.3 39.7°
Drops below altitude 10° 10:43:46 10° 13° (NNE) 2,061 9.5 39.9°
Sets 10:47:45 0° 46° (NE) 2,964 10.4 40.3°
